sat.trackr.live / text

‹ back to catalog

AEHF-4 (USA 288)

NORAD 43651 · 2018-079A

PAYLOAD ACTIVE UNKNOWN

§ Identity

Operator
Country
US
Launch date
2018-10-17
Launch site
AFETR
Launch vehicle
Mass (kg)
RCS (m²)

Purposes: comms

External: N2YO · Heavens-Above · Gunter

§ Orbital elements

Epoch: 2026-09-14T22:01:48.927360Z

Period
1,436.16 min
Inclination
1.4209°
Eccentricity
0.0068652
Mean motion
1.00267206 rev/d
Perigee alt
35,498.4 km
Apogee alt
36,077.4 km
Semi-major
42,166.0 km
B*
0.0000e+0
RAAN
358.1781°
Arg perigee
0.7804°
Mean anomaly
257.7281°
Rev number
2,919

§ Raw data

AEHF-4 (USA 288)1 43651U 18079A   26257.91792740 -.00000281  00000+0  00000+0 0  99952 43651   1.4209 358.1781 0068652   0.7804 257.7281  1.00267206 29193

JSON: /api/v1/satellites/43651 · /tle

For live sub-satellite position, see the globe view (requires WebGL).

§ Visibility from observer

Set your observer location to see the next 7 days of passes ≥ 10°. The values pass through the URL so the page stays shareable.

No JS? Fill the form by hand. The geolocation button needs JavaScript.